Location: Arboyeti
(42.1122°N, 44.6017°E)
Time: 17:02:21
(UTC+00:00)

Cosmos 2297 Rocket - Pass Details

Date: 19 April 2021
Orbit: 838 x 844 km, 71.0° (Epoch: 06 May)

Event Time Altitude Azimuth Distance (km) Brightness Sun altitude
Exits shadow 16:20:22 - 137° (SE) 2,903 4.4 -6.6°
Reaches altitude 10° 16:22:42 10° 118° (ESE) 2,453 3.9 -7.0°
Maximum altitude 16:24:44 12° 96° (E) 2,314 3.9 -7.4°
Drops below altitude 10° 16:26:47 10° 75° (ENE) 2,460 4.2 -7.7°
Sets 16:30:54 0° 46° (NE) 3,403 5.1 -8.4°
